Theta_e
307 306 304 301 300 301 301 301 301 301 301 301 300 300 301 303 306 306 307 307 304 302 304 305 304 302 303 301 299 306 306 310 315 316 316 315 315 315 315 312 310 306 305 304 304 305 301
309 306 305 303 301 301 301 301 301 301 301 301 300 300 300 302 305 306 304 304 302 301 302 301 303 303 304 300 300 306 308 312 315 315 315 315 315 316 314 312 310 307 305 304 304 303 301
309 308 306 303 301 301 301 301 301 301 301 301 300 300 300 301 304 306 305 305 303 305 304 301 302 302 302 300 301 304 306 311 313 314 315 314 315 316 312 308 307 306 304 304 304 303 301
305 308 307 305 302 301 301 301 301 301 301 301 301 300 299 300 303 304 304 304 305 306 302 302 301 301 297 299 300 304 305 310 311 310 314 314 314 313 311 309 308 306 305 304 302 301 301
302 306 308 306 303 301 301 301 301 301 302 301 301 301 300 300 302 303 302 303 304 305 300 302 300 301 298 298 300 303 304 307 308 311 310 311 313 311 310 308 309 308 309 306 301 300 299
306 302 307 307 306 303 301 301 301 301 302 301 301 301 300 299 300 300 302 301 301 301 300 300 300 300 298 298 302 306 305 306 308 308 308 305 307 306 307 305 307 308 310 304 302 298 298
314 307 302 307 307 304 303 301 301 301 301 301 301 301 300 299 299 299 301 303 304 303 299 298 298 297 297 299 302 305 306 304 303 303 302 302 298 304 301 299 299 301 301 299 298 297 296
317 315 309 302 306 306 304 302 301 302 302 302 302 301 300 299 299 299 300 301 299 299 298 297 297 296 296 298 299 304 303 303 304 300 300 297 297 296 297 297 299 299 299 297 296 296 295
314 317 316 312 305 304 306 303 301 302 302 302 302 301 300 300 299 299 298 300 299 298 301 298 297 297 296 298 296 299 301 300 299 299 295 296 295 295 296 296 296 296 297 295 295 294 294
315 314 316 316 314 307 304 304 302 302 302 302 302 302 301 302 302 298 301 298 299 298 299 299 298 297 297 297 296 295 297 298 298 297 296 295 295 295 295 295 294 295 294 294 294 292 295
316 316 316 317 318 316 309 304 303 302 302 302 303 303 302 302 300 299 299 299 299 302 310 300 298 296 297 297 296 296 295 297 297 296 295 296 294 294 295 294 295 293 293 294 294 293 292
319 318 317 317 319 318 316 312 307 304 302 302 305 306 304 301 301 300 299 299 302 306 308 299 297 297 297 297 296 295 295 296 296 295 293 293 293 294 294 293 294 294 293 294 293 292 291
321 321 322 320 321 320 318 317 309 304 302 301 306 309 306 305 303 300 299 304 305 307 302 300 298 297 297 296 296 296 295 293 294 294 294 293 293 292 293 292 293 293 293 296 296 294 295
322 322 322 322 321 321 320 318 314 306 301 300 305 307 306 305 301 300 301 302 310 307 300 298 298 297 297 296 296 296 295 294 294 296 294 295 297 292 292 292 293 292 294 298 299 299 297
323 323 322 322 321 321 321 319 315 308 301 299 303 304 307 304 301 299 304 304 308 301 299 297 297 297 296 295 295 296 294 294 295 296 300 295 295 291 291 292 293 293 294 294 294 292 290
322 322 322 322 322 321 320 320 318 310 303 299 301 306 305 303 300 299 303 307 301 299 298 298 299 298 299 295 293 295 295 295 294 294 296 297 294 291 290 292 291 294 293 294 294 295 293
322 322 322 322 321 321 321 320 319 316 308 298 302 306 303 300 299 300 301 302 299 297 297 298 298 298 297 296 293 294 296 295 293 292 292 293 294 290 290 290 292 291 294 293 294 296 297
312 311 313 318 320 320 320 320 318 316 307 298 304 306 303 298 300 300 300 300 298 296 296 296 295 296 297 295 296 294 294 294 292 291 292 292 292 289 290 287 288 289 292 293 295 296 293
298 299 300 309 307 315 318 318 318 317 316 302 307 303 299 300 303 297 297 297 297 296 296 295 296 295 294 296 301 296 294 290 291 291 291 291 291 290 290 287 287 287 289 291 289 289 290
297 298 299 305 310 316 316 316 317 317 316 308 307 301 297 298 295 298 299 299 298 296 297 296 294 293 293 293 294 296 292 290 290 291 293 291 284 290 298 293 287 286 289 290 292 291 290
297 297 299 300 303 312 316 316 316 315 314 309 307 303 300 299 296 296 301 301 299 297 295 295 294 294 294 292 292 291 291 288 288 290 289 290 286 287 287 289 289 288 289 290 291 292 293
296 297 298 301 302 301 303 312 314 314 313 308 306 304 299 298 297 296 299 298 301 299 295 294 293 294 293 294 293 290 287 286 288 287 286 285 290 285 285 288 289 288 287 289 290 291 292
296 296 297 303 310 307 308 306 311 313 311 307 305 305 304 299 297 298 298 300 299 298 298 296 293 292 291 292 291 288 288 287 288 287 286 285 287 287 289 283 283 286 286 286 288 289 290
296 296 297 302 310 310 313 312 312 313 311 310 308 304 303 303 298 299 299 298 298 299 299 293 293 294 290 289 290 289 288 285 286 282 284 285 286 288 288 286 290 288 277 282 286 286 283
296 296 296 297 306 312 311 311 311 311 310 308 307 306 305 303 299 299 299 299 297 295 293 291 288 289 289 288 290 288 284 282 278 278 281 281 288 288 289 287 286 287 280 280 283 282 271
295 295 296 296 299 306 307 307 306 308 307 307 306 305 304 302 299 301 299 298 294 287 289 285 285 286 287 290 291 291 292 288 284 279 279 281 282 288 285 287 287 283 278 278 278 281 274
296 295 295 295 298 303 304 306 306 305 307 305 305 304 303 301 299 298 296 296 296 292 287 283 283 284 286 286 290 291 289 287 286 281 279 281 282 285 287 288 286 279 277 278 283 282 274
296 296 296 295 295 297 303 303 305 304 306 305 305 305 302 300 296 296 295 294 294 293 288 284 284 282 283 287 289 287 288 285 284 280 279 281 283 283 285 285 286 276 276 280 274 273 273
297 297 297 296 296 295 296 299 305 305 305 305 304 304 302 299 294 293 293 293 293 293 292 287 289 284 285 286 287 290 290 283 282 286 279 285 286 284 285 285 274 274 274 272 272 272 272
Wind_Speed
5 5 3 3 4 4 6 7 9 11 11 12 12 12 12 12 14 16 16 16 15 11 5 3 2 3 3 6 7 7 6 6 10 11 9 5 4 0 5 7 9 7 6 13 18 19 18
4 4 3 2 2 3 4 6 8 10 11 12 12 11 11 10 10 11 14 17 11 10 9 9 4 2 3 5 5 8 7 7 8 10 7 5 3 5 10 8 7 13 18 14 8 9 10
2 2 2 1 1 2 4 5 7 8 10 11 11 10 9 8 8 8 10 8 6 4 4 5 1 5 5 4 5 6 8 6 6 7 8 7 5 5 8 13 16 22 8 8 7 5 4
1 2 2 1 0 1 2 4 5 7 8 9 10 9 7 6 6 7 5 1 4 3 5 3 4 4 5 3 4 4 6 8 6 5 8 8 10 15 8 22 8 5 4 4 5 8 10
2 1 1 1 0 0 1 3 5 6 8 8 9 9 7 5 3 3 2 2 3 2 5 3 3 2 3 3 3 3 5 9 10 7 9 9 11 10 16 6 3 4 3 4 3 6 7
4 2 1 1 2 1 1 2 3 5 7 8 9 8 7 4 3 3 3 3 3 6 1 4 4 2 2 2 3 6 6 7 6 6 6 4 4 3 2 3 5 6 4 3 5 6 6
5 3 2 1 2 2 2 2 3 5 7 8 9 8 6 4 3 3 2 2 2 1 8 6 3 5 4 6 5 5 6 7 6 2 0 2 5 4 3 3 4 2 1 4 2 2 2
7 5 3 2 1 2 3 2 3 4 5 7 8 8 7 5 2 2 3 2 2 1 5 6 7 5 5 3 1 3 2 3 1 1 2 6 2 1 3 3 3 3 3 3 3 3 1
9 7 5 4 3 2 2 2 2 3 4 5 6 6 6 6 3 4 3 1 1 2 3 3 2 2 2 1 3 1 2 3 5 3 4 4 2 2 2 3 4 3 2 2 3 3 3
12 9 7 6 4 4 3 3 3 3 4 5 5 5 6 6 3 7 4 2 2 2 4 1 2 4 3 3 4 4 4 2 2 5 4 5 2 2 2 2 2 2 2 4 3 3 3
15 13 10 8 7 5 5 4 4 4 4 4 4 5 6 6 4 5 6 1 2 2 4 2 1 1 5 4 2 5 4 2 2 3 4 2 5 2 2 1 2 4 4 3 2 2 5
18 16 13 12 8 7 7 6 5 5 4 3 3 4 5 4 5 4 2 4 0 4 4 1 1 1 2 2 2 2 3 3 3 4 5 2 0 1 2 4 4 5 3 2 3 3 2
21 19 16 14 13 9 9 8 7 6 5 4 3 4 3 4 3 1 3 1 4 3 2 0 1 1 2 2 1 0 1 0 4 3 2 2 1 1 6 5 4 2 4 3 3 2 6
24 22 19 18 15 12 12 10 9 8 7 5 4 4 3 2 1 3 1 4 1 2 2 1 2 1 2 2 2 2 1 3 6 3 3 4 4 6 4 3 5 5 5 4 7 4 4
24 22 24 20 18 15 16 12 11 9 8 7 5 4 3 1 1 5 1 2 5 1 3 4 1 1 2 1 1 1 5 4 5 8 7 4 3 2 4 2 1 5 5 3 1 2 2
26 24 26 26 26 21 17 15 14 13 10 8 5 4 5 4 5 8 3 3 2 2 4 3 2 4 3 4 1 2 4 2 3 3 1 2 3 2 1 2 2 1 2 3 1 3 5
21 20 22 21 19 19 22 20 20 16 14 10 5 3 2 5 8 4 3 5 2 2 2 3 3 2 3 5 6 4 4 0 2 3 6 2 2 1 2 8 8 4 3 2 1 3 4
28 28 28 26 25 23 24 22 22 19 16 13 7 2 4 13 3 1 2 2 2 3 2 2 1 2 2 5 3 3 6 2 3 5 5 4 4 4 9 2 3 1 5 6 4 6 2
18 19 23 24 22 27 26 20 23 20 17 15 7 3 9 15 3 3 3 2 1 3 3 3 2 3 1 4 1 5 1 1 4 3 4 3 2 2 4 4 3 4 4 2 4 3 7
9 12 15 21 20 20 22 25 23 21 21 18 7 2 3 8 3 1 3 3 3 4 3 3 2 4 2 2 2 4 6 4 4 5 5 3 1 7 9 3 4 4 6 13 11 5 4
6 7 9 14 22 23 24 24 22 24 19 16 7 3 6 3 5 5 4 2 2 4 4 7 2 6 6 4 2 6 3 1 3 7 4 4 6 3 5 5 6 7 6 15 19 20 13
4 4 6 9 15 20 23 24 22 19 17 15 8 5 7 4 5 8 5 4 6 3 7 5 6 7 9 8 9 8 6 3 6 3 4 0 3 1 5 7 9 16 11 14 19 20 24
4 4 3 3 6 11 18 21 23 21 16 9 13 10 6 8 5 4 6 6 7 6 9 1 6 3 5 11 1 6 5 5 5 8 6 5 4 2 5 4 6 13 16 21 16 15 21
4 2 0 5 10 10 12 14 13 17 13 12 9 10 7 2 4 5 6 10 8 10 3 3 4 6 5 6 4 1 2 2 1 3 2 5 5 2 3 3 5 5 2 3 14 4 5
4 2 2 4 12 11 12 12 13 11 12 11 11 10 7 3 5 5 8 5 6 4 3 5 3 4 10 5 1 3 3 4 2 3 1 3 4 2 3 4 8 9 1 4 5 4 2
4 3 2 2 3 9 13 13 12 10 9 12 13 14 6 5 9 4 7 11 4 3 2 2 4 15 7 3 2 4 4 4 3 2 3 2 3 5 3 4 6 4 3 2 2 4 2
5 3 3 3 3 7 12 17 18 15 18 14 16 17 13 5 7 11 4 5 9 5 3 4 8 8 9 2 4 5 4 3 4 6 5 3 2 11 9 6 7 2 1 1 3 2 2
6 6 6 6 7 8 9 11 18 19 21 17 17 20 20 7 8 12 10 6 7 8 5 10 5 3 3 4 4 4 3 5 2 5 6 7 8 4 5 4 10 5 2 4 3 6 2
6 7 7 9 10 11 13 13 17 19 25 30 21 18 23 14 3 7 12 12 12 9 12 20 3 7 12 3 3 2 3 2 4 3 0 4 6 5 9 4 3 4 6 7 3 3 5
Wind_Direction
55 35 30 88 90 63 47 42 38 34 36 35 34 36 38 44 46 54 86 98 105 113 58 19 61 95 73 43 39 41 56 81 119 113 119 123 173 332 123 105 74 89 100 75 105 100 96
35 48 45 33 50 52 44 37 35 31 30 30 30 33 39 49 56 66 97 108 84 81 72 46 69 110 101 67 53 55 70 96 111 127 139 124 75 81 85 77 63 120 111 115 89 93 114
35 36 35 73 72 33 28 29 28 30 28 28 28 30 37 52 67 81 111 103 63 42 29 36 103 56 89 105 104 83 78 99 105 135 129 119 102 119 101 89 118 121 99 106 123 117 97
325 10 21 20 29 43 26 22 20 24 27 28 28 28 37 57 82 93 114 57 352 26 15 69 96 43 78 74 121 136 97 94 89 123 147 117 109 107 108 120 120 88 104 121 191 142 167
254 305 353 348 281 159 19 10 12 15 17 23 26 26 31 53 81 76 37 32 34 33 43 127 87 50 65 51 93 109 113 97 79 99 117 122 130 98 128 109 84 189 183 158 214 185 152
246 261 306 337 321 316 339 3 5 10 12 11 18 24 31 49 67 69 59 80 41 47 186 116 97 112 97 2 92 98 104 121 102 101 104 85 87 93 77 95 193 191 208 157 176 209 170
240 249 273 313 319 307 307 344 358 2 5 7 7 14 27 42 61 69 33 314 46 58 48 70 56 97 111 95 91 117 114 117 98 81 111 34 73 178 165 160 151 153 201 125 134 139 158
229 231 240 255 286 313 309 320 338 348 1 4 4 8 12 26 65 56 12 26 44 26 95 69 64 83 110 105 94 128 87 60 8 182 48 31 129 156 95 73 117 101 129 103 83 150 160
228 229 234 248 264 280 294 283 287 318 343 358 3 7 10 6 32 10 355 17 354 126 89 65 85 47 75 110 71 107 125 46 50 59 13 136 164 144 81 49 88 47 161 136 157 321 265
233 229 236 246 255 267 281 278 280 308 326 343 350 2 358 5 2 2 17 342 217 214 79 99 51 18 1 111 44 43 90 107 45 135 111 103 227 145 95 74 61 160 85 102 76 62 224
232 234 234 249 255 269 275 278 282 295 305 324 336 342 349 358 354 352 340 88 185 313 346 48 48 62 65 67 114 25 53 47 104 118 101 155 155 161 152 167 100 182 100 91 61 41 31
234 234 232 240 249 259 272 275 279 279 281 295 313 333 340 347 354 352 72 134 208 39 272 102 61 112 129 117 78 55 31 74 86 73 36 107 114 72 111 77 86 134 85 53 58 72 328
241 236 236 236 238 251 260 270 275 268 263 265 279 309 321 334 358 31 128 337 25 139 93 351 234 163 256 119 70 82 125 37 172 81 212 17 263 62 137 94 15 96 77 343 330 338 233
245 235 236 236 238 245 252 256 261 265 258 255 267 288 306 346 9 151 148 45 298 351 44 19 61 25 153 132 99 127 44 275 216 129 145 183 274 172 188 198 169 180 172 179 237 220 268
244 246 237 234 233 240 241 246 247 250 251 250 256 267 272 279 222 170 75 71 218 135 146 137 177 116 265 26 62 175 212 222 204 179 185 161 252 41 45 10 114 186 206 143 58 247 13
239 249 248 243 240 241 240 248 247 241 234 232 234 254 249 230 186 166 82 247 244 113 131 138 222 192 241 189 196 214 228 228 139 64 79 211 343 196 349 25 89 137 164 114 130 259 270
243 244 239 241 247 250 248 249 251 234 231 204 222 257 258 158 153 142 171 226 151 151 179 197 218 259 212 183 183 213 227 22 78 102 71 78 129 319 88 204 181 161 202 170 75 186 216
254 253 250 246 239 238 250 251 236 232 204 193 188 192 181 154 107 216 199 225 175 178 219 229 250 262 242 152 187 253 241 40 129 138 161 200 152 190 209 5 352 292 195 174 187 210 227
254 250 247 244 242 226 239 240 246 234 236 195 181 177 176 174 167 209 220 194 230 148 223 188 238 233 316 182 234 248 151 357 161 97 157 206 221 343 302 351 345 225 202 144 87 43 198
254 249 243 237 233 227 231 237 239 242 239 214 162 125 128 197 217 199 167 215 216 188 167 193 162 111 97 273 262 231 216 194 159 148 141 158 228 201 236 176 134 203 208 201 193 208 189
268 264 244 234 229 228 225 234 245 240 230 199 175 183 167 191 233 164 73 248 200 205 199 197 211 186 160 237 255 241 200 168 227 192 130 153 223 236 253 218 195 211 191 205 213 224 227
265 272 254 242 228 224 223 223 237 236 234 197 168 165 174 145 125 134 190 235 212 188 150 238 214 191 179 210 197 206 147 190 209 147 145 281 251 40 274 227 218 255 222 226 225 230 241
259 273 290 198 172 200 207 215 221 231 231 196 201 186 168 155 143 138 196 202 203 172 228 226 217 156 205 236 184 116 124 99 185 159 172 155 178 144 270 339 315 281 230 211 225 224 226
250 260 183 149 176 192 211 197 221 232 225 221 212 184 171 182 179 204 184 205 216 201 187 203 222 181 178 153 110 111 46 33 189 70 132 159 153 172 286 344 253 275 330 174 223 270 284
241 247 215 170 178 197 212 213 228 238 224 230 214 195 188 145 181 201 194 182 161 164 135 160 189 200 150 123 80 328 330 6 14 30 25 25 167 203 238 227 309 310 245 143 164 271 320
211 221 236 259 211 199 210 222 218 210 237 237 233 225 200 141 217 196 165 189 177 160 118 111 122 149 170 182 158 221 234 221 247 339 37 63 7 204 141 232 249 245 292 291 126 283 342
209 202 225 239 232 218 218 222 231 224 234 235 235 233 221 206 211 192 187 187 169 140 110 143 155 181 181 181 205 214 244 150 220 179 166 135 222 221 221 242 274 276 7 22 108 242 108
224 230 242 242 238 238 230 216 222 232 240 230 237 236 220 215 225 214 216 180 165 173 154 148 123 203 157 206 204 217 210 217 173 158 177 167 171 194 195 225 262 18 51 182 132 98 49
249 258 257 252 250 240 236 228 219 224 243 244 226 238 234 227 212 217 222 222 221 207 193 177 250 165 178 177 216 222 213 161 182 244 336 209 201 185 202 217 65 46 97 110 92 104 64